Home > Weather > Feldbach > Past weeks

Flag for Austria Weather for the Past 2 Weeks in Feldbach, Styria, Austria

Now
37 °F

Overcast.


Feels Like: N/A
Forecast: 32 / 54 °F
Wind: N/A

Location: Graz-Thalerhof-Flughafen

Current Time: Feb 8, 2016 at 9:32:42 AM

Latest Report: Feb 8, 2016 at 8:00 AM


Visibility: 12 mi

Pressure: 29.97 "Hg

Humidity: 91%

Dew point: 35 °F

Location of FeldbachLocation

Historic Weather in Feldbach — Graph

°F

Feldbach Temperature Yesterday

Maximum temperature yesterday: 51 °F (at 1:00 PM)
Minimum temperature yesterday: 26 °F (at 3:00 AM)
Average temperature yesterday: 41 °F

High & Low Weather Summary for the Past Weeks

 TemperatureHumidityPressure
High60 °F (Jan 28, 3:00 PM)100% (Jan 30, 2:00 AM)30.65 "Hg (Jan 30, 2:00 AM)
Low14 °F (Jan 24, 8:00 AM)31% (Feb 4, 1:00 PM)29.90 "Hg (Feb 3, 3:00 PM)
Average39 °F78%30.22 "Hg
* Reported Jan 24 8:00 AM — Feb 8 8:00 AM, Feldbach, Weather by CustomWeather, © 2016

Note: Actual official high and low records may vary slightly from our data, if they occured in-between our weather recording intervals... More about our weather records

Advertising

Feldbach Weather History for the Previous 24 Hours

 ConditionsComfort  
Time TempWeatherWind HumidityBarometerVisibility
8:00 AM
Mon, Feb 8
37 °FOvercast.N/A91%29.97 "Hg12 mi
7:00 AM39 °FOvercast.N/A90%29.97 "Hg19 mi
6:00 AM38 °FOvercast.N/A90%29.96 "Hg25 mi
5:00 AM38 °FOvercast.N/A91%29.96 "Hg25 mi
9:00 PM
Sun, Feb 7
48 °FOvercast.N/A69%29.92 "Hg28 mi
8:00 PM48 °FOvercast.N/A69%29.93 "Hg28 mi
7:00 PM47 °FOvercast.N/A69%29.93 "Hg31 mi
6:00 PM44 °FOvercast.N/A73%29.93 "Hg31 mi
5:00 PM47 °FOvercast.5 mph67%29.91 "Hg31 mi
4:00 PM49 °FOvercast.5 mph61%29.90 "Hg31 mi
3:00 PM50 °FOvercast.N/A59%29.91 "Hg28 mi
2:00 PM50 °FOvercast.5 mph59%29.90 "Hg31 mi
1:00 PM51 °FOvercast.N/A54%29.91 "Hg31 mi
12:00 PM50 °FOvercast.N/A55%29.93 "Hg25 mi
11:00 AM48 °FOvercast.N/A59%29.95 "Hg28 mi
10:00 AM47 °FOvercast.3 mph58%29.95 "Hg28 mi
9:00 AM45 °FOvercast.N/A63%29.97 "Hg28 mi
Weather by CustomWeather, © 2016

See weather overviewHow to use our weather pages